Baker, OR

11:05 PM PDT on April 22, 2017 (GMT -0700)
Baker City Municipal

Weather History for KBKE - March, 2013

Change the Weather History Date:

Tuesday, March 12, 2013

  Actual Average Record
Temperature  
Mean Temperature 43 °F 37 °F  
Max Temperature 61 °F 49 °F 68 °F (1992)
Min Temperature 25 °F 25 °F 3 °F (1967)
Degree Days  
Heating Degree Days 22 28  
Month to date heating degree days 349 358  
Since 1 July heating degree days 5741 5878  
Cooling Degree Days 0 0  
Month to date cooling degree days 0 0  
Year to date cooling degree days 0 0  
Moisture  
Dew Point 32 °F    
Average Humidity 71    
Maximum Humidity 100    
Minimum Humidity 42    
Precipitation  
Precipitation 0.00 in 0.03 in 0.22 in (1971)
Month to date precipitation 0.10 0.30  
Year to date precipitation 1.37 1.68  
Sea Level Pressure  
Sea Level Pressure 30.22 in    
Wind  
Wind Speed 5 mph (SE)    
Max Wind Speed 18 mph    
Max Gust Speed 24 mph    
Visibility 6 miles    
Events Fog    
T = Trace of Precipitation, MM = Missing Value Source: NWS Daily Summary

Daily Weather History Graph

Daily Weather History Graph

Search for Another Location

Airport or City:

Trip Planner

Search our weather history database for the weather conditions in past years. The results will help you decide how hot, cold, wet, or windy it might be!

Date:

Astronomy

Mar. 12, 2013 Rise Set
Actual Time 7:08 AM PDT 6:53 PM PDT
Civil Twilight 6:39 AM PDT 7:23 PM PDT
Nautical Twilight 6:05 AM PDT 7:57 PM PDT
Astronomical Twilight 5:31 AM PDT 8:31 PM PDT
Moon 7:13 AM PDT (3/12) 8:19 PM PDT (3/12)
Length of Visible Light 12h 43m
Length of Day
11h 45m
New Moon, 1% of the Moon is Illuminated
Mar 12
New Moon
Mar 19
First Quarter
Mar 27
Full
Apr 2
Last Quarter
Apr 10
New

Hourly Weather History & Observations

Time (PDT) Temp. Windchill Dew Point Humidity Pressure Visibility Wind Dir Wind Speed Gust Speed Precip Events Conditions
12:53 AM 34.0 °F - 32.0 °F 92% 30.28 in 10.0 mi Calm Calm - N/A   Overcast
1:53 AM 33.1 °F 28.7 °F 30.9 °F 92% 30.28 in 10.0 mi SSW 4.6 mph - N/A   Mostly Cloudy
2:53 AM 28.0 °F - 27.0 °F 96% 30.27 in 4.0 mi Calm Calm - N/A   Clear
3:53 AM 28.0 °F - 26.1 °F 92% 30.26 in 9.0 mi Calm Calm - N/A   Clear
4:53 AM 28.0 °F 24.2 °F 26.1 °F 92% 30.26 in 6.0 mi SE 3.5 mph - N/A   Clear
5:36 AM 26.6 °F - 24.8 °F 93% 30.21 in 2.5 mi Calm Calm - N/A   Scattered Clouds
5:38 AM 26.6 °F - 24.8 °F 93% 30.21 in 1.0 mi Calm Calm - N/A   Mist
5:45 AM 24.8 °F - 24.8 °F 100% 30.22 in 0.5 mi Calm Calm - N/A Fog Light Freezing Fog
5:53 AM 26.1 °F - 25.0 °F 96% 30.28 in 0.2 mi Calm Calm - N/A Fog Light Freezing Fog
6:34 AM 26.6 °F - 26.6 °F 100% 30.21 in 0.5 mi Calm Calm - N/A Fog Light Freezing Fog
6:53 AM 27.0 °F 23.0 °F 26.1 °F 96% 30.29 in 0.5 mi West 3.5 mph - N/A Fog Light Freezing Fog
7:15 AM 26.6 °F 20.0 °F 24.8 °F 93% 30.22 in 0.2 mi ESE 5.8 mph - N/A Fog Light Freezing Fog
7:53 AM 28.0 °F - 26.1 °F 92% 30.28 in 0.2 mi Calm Calm - N/A Fog Light Freezing Fog
8:23 AM 30.2 °F - 28.4 °F 93% 30.21 in 1.0 mi Calm Calm - N/A   Mist
8:27 AM 30.2 °F 25.4 °F 28.4 °F 93% 30.21 in 2.0 mi North 4.6 mph - N/A   Scattered Clouds
8:38 AM 30.2 °F - 30.2 °F 100% 30.20 in 1.2 mi Calm Calm - N/A   Partly Cloudy
8:48 AM 32.0 °F - 32.0 °F 100% 30.21 in 3.0 mi Calm Calm - N/A   Clear
8:53 AM 33.1 °F - 33.1 °F 100% 30.26 in 6.0 mi Calm Calm - N/A   Clear
9:53 AM 45.0 °F 40.1 °F 37.0 °F 74% 30.24 in 10.0 mi East 9.2 mph - N/A   Clear
10:53 AM 46.0 °F 43.1 °F 37.9 °F 73% 30.26 in 10.0 mi West 5.8 mph - N/A   Partly Cloudy
11:53 AM 48.9 °F - 37.9 °F 66% 30.23 in 10.0 mi Variable 3.5 mph - N/A   Clear
12:53 PM 55.0 °F - 37.0 °F 51% 30.19 in 10.0 mi SE 12.7 mph 19.6 mph N/A   Partly Cloudy
1:53 PM 57.0 °F - 37.0 °F 47% 30.18 in 10.0 mi SSE 12.7 mph - N/A   Clear
2:53 PM 57.9 °F - 37.0 °F 46% 30.17 in 10.0 mi ESE 6.9 mph 20.7 mph N/A   Partly Cloudy
3:53 PM 60.1 °F - 37.0 °F 42% 30.15 in 10.0 mi SE 16.1 mph 20.7 mph N/A   Clear
4:53 PM 59.0 °F - 37.0 °F 44% 30.15 in 10.0 mi SE 10.4 mph - N/A   Partly Cloudy
5:53 PM 57.0 °F - 37.9 °F 49% 30.15 in 10.0 mi ESE 11.5 mph - N/A   Clear
6:53 PM 50.0 °F - 37.0 °F 61% 30.18 in 10.0 mi SSE 3.5 mph - N/A   Clear
7:53 PM 45.0 °F 40.6 °F 37.0 °F 74% 30.19 in 10.0 mi East 8.1 mph - N/A   Clear
8:53 PM 45.0 °F 41.8 °F 36.0 °F 71% 30.21 in 10.0 mi SE 5.8 mph - N/A   Scattered Clouds
9:53 PM 41.0 °F - 35.1 °F 79% 30.21 in 10.0 mi Calm Calm - N/A   Scattered Clouds
10:53 PM 39.0 °F - 34.0 °F 82% 30.21 in 10.0 mi Calm Calm - N/A   Mostly Cloudy
11:53 PM 37.4 °F - 33.8 °F 87% 30.19 in 10.0 mi Calm Calm - N/A   Scattered Clouds